| time (UTC) | temp C | wind direction | speed KPH | gust KPH | rain 1hr cm | rain 24hr cm | rain mn cm | humidity % | barometer mb |
| 20260507194502 | 18 | 248 | 0.0 | 6.4 | 0.00 | 0.00 | 0.00 | 73 | 1012.7 |
| 20260507193024 | 18 | 236 | 0.0 | 0.0 | 0.00 | 0.00 | 0.00 | 74 | 1012.5 |
| 20260507191540 | 18 | 241 | 0.0 | 3.2 | 0.00 | 0.00 | 0.00 | 70 | 1012.3 |
| 20260507190006 | 18 | 236 | 0.0 | 8.0 | 0.00 | 0.00 | 0.00 | 69 | 1012.0 |
| 20260507184528 | 18 | 213 | 0.0 | 1.6 | 0.00 | 0.00 | 0.00 | 73 | 1011.9 |
| 20260507183046 | 18 | 202 | 0.0 | 6.4 | 0.00 | 0.00 | 0.00 | 75 | 1011.6 |
| 20260507181606 | 19 | 205 | 0.0 | 8.0 | 0.00 | 0.00 | 0.00 | 75 | 1011.5 |
| 20260507180010 | 19 | 189 | 0.0 | 8.0 | 0.00 | 0.00 | 0.00 | 73 | 1011.2 |
| 20260507174525 | 20 | 146 | 0.0 | 6.4 | 0.00 | 0.00 | 0.00 | 70 | 1011.0 |
| 20260507173108 | 20 | 202 | 0.0 | 3.2 | 0.00 | 0.00 | 0.00 | 67 | 1010.8 |
| 20260507171611 | 21 | 183 | 0.0 | 11.3 | 0.00 | 0.00 | 0.00 | 63 | 1010.6 |
| 20260507170014 | 21 | 213 | 0.0 | 3.2 | 0.00 | 0.00 | 0.00 | 55 | 1010.5 |
| 20260507164543 | 22 | 219 | 0.0 | 3.2 | 0.00 | 0.00 | 0.00 | 56 | 1010.5 |
| 20260507163047 | 22 | 211 | 0.0 | 0.0 | 0.00 | 0.00 | 0.00 | 55 | 1010.5 |
| 20260507161607 | 22 | 116 | 0.0 | 0.0 | 0.00 | 0.00 | 0.00 | 56 | 1010.5 |
| 20260507160048 | 22 | 121 | 0.0 | 0.0 | 0.00 | 0.00 | 0.00 | 56 | 1010.5 |
| 20260507154518 | 22 | 134 | 0.0 | 0.0 | 0.00 | 0.00 | 0.00 | 55 | 1010.4 |
| 20260507153032 | 22 | 109 | 0.0 | 1.6 | 0.00 | 0.00 | 0.00 | 56 | 1010.4 |
| 20260507151501 | 22 | 89 | 0.0 | 4.8 | 0.00 | 0.00 | 0.00 | 56 | 1010.2 |
| 20260507150036 | 22 | 119 | 1.6 | 11.3 | 0.00 | 0.00 | 0.00 | 55 | 1010.2 |
| 20260507144505 | 23 | 355 | 0.0 | 8.0 | 0.00 | 0.00 | 0.00 | 47 | 1010.3 |
| 20260507143049 | 23 | 24 | 0.0 | 17.7 | 0.00 | 0.00 | 0.00 | 48 | 1010.4 |
| 20260507141502 | 23 | 355 | 1.6 | 14.5 | 0.00 | 0.00 | 0.00 | 47 | 1010.5 |
| 20260507140015 | 23 | 319 | 0.0 | 9.7 | 0.00 | 0.00 | 0.00 | 47 | 1010.5 |
| 20260507134535 | 23 | 360 | 0.0 | 17.7 | 0.00 | 0.05 | 0.00 | 50 | 1010.6 |
| 20260507133051 | 22 | 343 | 0.0 | 14.5 | 0.00 | 0.05 | 0.00 | 52 | 1010.6 |
| 20260507131551 | 22 | 314 | 0.0 | 12.9 | 0.00 | 0.05 | 0.00 | 50 | 1010.7 |
| 20260507130003 | 23 | 13 | 0.0 | 17.7 | 0.00 | 0.89 | 0.00 | 50 | 1010.8 |
| 20260507124520 | 23 | 323 | 0.0 | 9.7 | 0.00 | 0.89 | 0.00 | 50 | 1010.8 |
| 20260507123041 | 23 | 360 | 0.0 | 12.9 | 0.00 | 0.89 | 0.00 | 54 | 1010.8 |
| 20260507121501 | 22 | 360 | 1.6 | 19.3 | 0.00 | 0.89 | 0.00 | 51 | 1010.8 |
| 20260507120035 | 22 | 20 | 0.0 | 11.3 | 0.00 | 0.89 | 0.00 | 53 | 1010.9 |
| 20260507114541 | 22 | 5 | 0.0 | 8.0 | 0.00 | 0.89 | 0.00 | 55 | 1010.9 |
| 20260507113109 | 22 | 292 | 0.0 | 16.1 | 0.00 | 0.89 | 0.00 | 55 | 1011.0 |
| 20260507111514 | 21 | 349 | 0.0 | 11.3 | 0.00 | 0.89 | 0.00 | 58 | 1011.1 |
| 20260507110107 | 21 | 18 | 0.0 | 9.7 | 0.00 | 0.89 | 0.00 | 60 | 1011.2 |
| 20260507104522 | 21 | 341 | 0.0 | 11.3 | 0.00 | 0.89 | 0.00 | 61 | 1011.4 |
| 20260507103040 | 21 | 334 | 0.0 | 14.5 | 0.00 | 0.89 | 0.00 | 62 | 1011.7 |
| 20260507101602 | 20 | 5 | 0.0 | 11.3 | 0.00 | 0.89 | 0.00 | 64 | 1011.8 |
| 20260507100036 | 20 | 323 | 0.0 | 9.7 | 0.00 | 0.89 | 0.00 | 60 | 1011.9 |
| 20260507094557 | 20 | 360 | 0.0 | 11.3 | 0.00 | 0.89 | 0.00 | 61 | 1011.9 |
| 20260507093005 | 20 | 303 | 0.0 | 0.0 | 0.00 | 0.89 | 0.00 | 65 | 1011.7 |
| 20260507091525 | 19 | 17 | 0.0 | 11.3 | 0.00 | 0.89 | 0.00 | 65 | 1011.7 |
| 20260507090055 | 19 | 29 | 0.0 | 0.0 | 0.00 | 0.89 | 0.00 | 67 | 1011.7 |
| 20260507084512 | 20 | 348 | 0.0 | 0.0 | 0.00 | 0.89 | 0.00 | 69 | 1011.7 |
| 20260507083024 | 18 | 315 | 0.0 | 0.0 | 0.00 | 0.89 | 0.00 | 74 | 1011.7 |
| 20260507081550 | 18 | 63 | 0.0 | 0.0 | 0.00 | 0.89 | 0.00 | 78 | 1011.6 |
| 20260507080011 | 17 | 64 | 0.0 | 0.0 | 0.00 | 0.89 | 0.00 | 80 | 1011.7 |
| 20260507074532 | 18 | 64 | 0.0 | 0.0 | 0.00 | 0.89 | 0.00 | 81 | 1011.7 |
| 20260507073134 | 17 | 64 | 0.0 | 0.0 | 0.00 | 0.89 | 0.00 | 81 | 1011.5 |
| 20260507071524 | 17 | 88 | 0.0 | 0.0 | 0.00 | 0.89 | 0.00 | 83 | 1011.5 |
| 20260507070039 | 16 | 90 | 0.0 | 0.0 | 0.00 | 0.89 | 0.00 | 86 | 1011.4 |
| 20260507064609 | 16 | 89 | 0.0 | 0.0 | 0.00 | 0.89 | 0.00 | 85 | 1011.2 |
| 20260507063015 | 16 | 90 | 0.0 | 0.0 | 0.00 | 0.89 | 0.00 | 88 | 1011.2 |
| 20260507061537 | 16 | 90 | 0.0 | 0.0 | 0.00 | 0.89 | 0.00 | 89 | 1011.2 |
| 20260507060056 | 16 | 117 | 0.0 | 0.0 | 0.00 | 0.89 | 0.00 | 94 | 1011.3 |
| 20260507054539 | 15 | 143 | 0.0 | 0.0 | 0.00 | 0.89 | 0.00 | 96 | 1011.0 |
| 20260507053102 | 13 | 142 | 0.0 | 0.0 | 0.00 | 0.89 | 0.00 | 97 | 1010.9 |
| 20260507051512 | 13 | 143 | 0.0 | 0.0 | 0.00 | 0.89 | 0.00 | 96 | 1010.8 |
| 20260507050041 | 12 | 143 | 0.0 | 0.0 | 0.00 | 0.89 | 0.00 | 96 | 1010.6 |
| 20260507044507 | 12 | 142 | 0.0 | 0.0 | 0.00 | 0.89 | 0.00 | 96 | 1010.6 |
| 20260507043033 | 12 | 142 | 0.0 | 0.0 | 0.00 | 0.89 | 0.00 | 96 | 1010.3 |
| 20260507041550 | 12 | 142 | 0.0 | 0.0 | 0.00 | 0.89 | 0.00 | 96 | 1010.1 |
| 20260507040024 | 12 | 143 | 0.0 | 0.0 | 0.00 | 0.89 | 0.00 | 96 | 1010.0 |
| 20260507034544 | 12 | 142 | 0.0 | 0.0 | 0.00 | 0.94 | 0.00 | 96 | 1010.0 |
| 20260507033104 | 12 | 142 | 0.0 | 0.0 | 0.00 | 0.94 | 0.00 | 96 | 1009.9 |
| 20260507031512 | 12 | 142 | 0.0 | 0.0 | 0.00 | 0.94 | 0.00 | 96 | 1009.9 |
| 20260507030031 | 12 | 142 | 0.0 | 0.0 | 0.00 | 0.94 | 0.00 | 96 | 1009.8 |
| 20260507024554 | 12 | 143 | 0.0 | 0.0 | 0.00 | 0.94 | 0.00 | 95 | 1009.8 |
| 20260507023103 | 12 | 143 | 0.0 | 0.0 | 0.00 | 0.94 | 0.00 | 95 | 1009.8 |
| 20260507021525 | 12 | 142 | 0.0 | 0.0 | 0.00 | 0.94 | 0.00 | 95 | 1009.8 |
| 20260507020145 | 13 | 143 | 0.0 | 0.0 | 0.00 | 0.94 | 0.00 | 95 | 1009.7 |
| 20260507014520 | 13 | 143 | 0.0 | 0.0 | 0.00 | 0.94 | 0.00 | 95 | 1009.7 |
| 20260507013103 | 13 | 142 | 0.0 | 0.0 | 0.00 | 0.94 | 0.00 | 95 | 1009.7 |
| 20260507011505 | 13 | 142 | 0.0 | 0.0 | 0.00 | 0.94 | 0.00 | 95 | 1009.6 |
| 20260507010031 | 13 | 143 | 0.0 | 0.0 | 0.00 | 0.94 | 0.00 | 95 | 1009.5 |
| 20260507004539 | 13 | 143 | 0.0 | 0.0 | 0.00 | 0.94 | 0.00 | 95 | 1009.7 |
| 20260507003104 | 13 | 143 | 0.0 | 0.0 | 0.00 | 0.94 | 0.00 | 95 | 1009.6 |
| 20260507001517 | 13 | 142 | 0.0 | 0.0 | 0.00 | 0.94 | 0.00 | 95 | 1009.7 |
| 20260507000034 | 13 | 143 | 0.0 | 0.0 | 0.00 | 0.94 | 0.00 | 95 | 1009.6 |
| 20260506234608 | 13 | 143 | 0.0 | 0.0 | 0.00 | 0.94 | 0.00 | 95 | 1009.7 |
| 20260506233032 | 14 | 142 | 0.0 | 0.0 | 0.00 | 0.94 | 0.00 | 95 | 1009.7 |
| 20260506231601 | 14 | 143 | 0.0 | 0.0 | 0.00 | 0.94 | 0.00 | 95 | 1009.7 |
| 20260506230023 | 14 | 143 | 0.0 | 0.0 | 0.00 | 0.94 | 0.00 | 95 | 1009.6 |
| 20260506224549 | 14 | 142 | 0.0 | 0.0 | 0.00 | 0.94 | 0.00 | 95 | 1009.5 |
| 20260506223059 | 14 | 142 | 0.0 | 0.0 | 0.00 | 0.94 | 0.00 | 95 | 1009.6 |
| 20260506221516 | 14 | 142 | 0.0 | 0.0 | 0.00 | 0.94 | 0.00 | 95 | 1009.6 |
| 20260506220045 | 14 | 143 | 0.0 | 0.0 | 0.00 | 0.94 | 0.00 | 95 | 1009.6 |
| 20260506214515 | 14 | 143 | 0.0 | 0.0 | 0.00 | 0.94 | 0.94 | 94 | 1009.4 |
| 20260506213037 | 14 | 142 | 0.0 | 0.0 | 0.00 | 0.94 | 0.94 | 94 | 1009.4 |
| 20260506211507 | 15 | 142 | 0.0 | 0.0 | 0.00 | 0.94 | 0.94 | 94 | 1009.4 |
| 20260506210017 | 15 | 143 | 0.0 | 0.0 | 0.00 | 0.94 | 0.94 | 94 | 1009.3 |
| 20260506204552 | 15 | 142 | 0.0 | 0.0 | 0.00 | 0.94 | 0.94 | 94 | 1009.3 |
| 20260506203021 | 15 | 143 | 0.0 | 0.0 | 0.00 | 0.94 | 0.94 | 93 | 1009.2 |
| 20260506201536 | 15 | 143 | 0.0 | 0.0 | 0.00 | 0.94 | 0.94 | 93 | 1009.2 |
| 20260506200056 | 15 | 142 | 0.0 | 0.0 | 0.00 | 0.94 | 0.94 | 93 | 1009.0 |